Find Starlink 4524

NORAD ID: 53396 Int'l Des: 2022-097 Owner: SPXS Country: US Constellation: starlink operational
LEOCIRCULAR

实时位置

正在加载3D地球...

关于 Starlink 4524

正在加载描述...

即将过境

Passes for default location (London). Set your location on the main map for personalized predictions.

高度历史

Loading altitude history...

两行轨道根数

1 53396U 22097J 26120.75129531 .00002583 00000-0 18025-3 0 9997
2 53396 53.2168 250.4076 0001303 87.1701 272.9441 15.08850936206370
Epoch: Apr 30, 2026 • Age: 19 hours

当前状态

高度 555.8 km
速度 7.58 km/s
星下点 -45.22°S, 67.21°E
发射日期 Aug 10, 2022
运行时间 3.7 years
类型 internet

技术详情

分类 Payload
质量 297.00 kg
干质量 275.00 kg
总质量 297.00 kg
长度 0.20 m
直径 2.80 m
跨度 9.00 m
形状 Box + pan
制造商 SPXS
平台类型 Starlink
阶段状态 In Orbit
所有者/国家 SPXS/US

Most Searched